This is the latest recevied weather packets stored in our database for station/object AD6NH. If no packets are shown the sender has not sent any weather packets the latest 10 day(s).
| Time | Temp. | Humidity | Pressure | Rain* | Wind** | Luminosity | Snow |
|---|---|---|---|---|---|---|---|
| 1777454554 | 12.22° C | 82% | 1017.4 hPa | 0 mm | - | - | - |
| 1777453954 | 12.22° C | 83% | 1017.4 hPa | 0 mm | - | - | - |
| 1777453354 | 12.22° C | 82% | 1017.7 hPa | 0 mm | - | - | - |
| 1777452754 | 12.78° C | 79% | 1017.8 hPa | 0 mm | - | - | - |
| 1777452154 | 12.78° C | 79% | 1017.8 hPa | 0 mm | - | - | - |
| 1777451554 | 12.78° C | 79% | 1018.2 hPa | 0 mm | - | - | - |
| 1777450954 | 12.78° C | 80% | 1018.2 hPa | 0 mm | - | - | - |
| 1777450354 | 12.78° C | 80% | 1018.2 hPa | 0 mm | - | - | - |
| 1777449754 | 12.78° C | 79% | 1018.3 hPa | 0 mm | - | - | - |
| 1777449154 | 12.78° C | 77% | 1018.2 hPa | 0 mm | - | - | - |
| 1777448554 | 13.33° C | 77% | 1018.1 hPa | 0 mm | - | - | - |
| 1777447954 | 13.33° C | 76% | 1018 hPa | 0 mm | - | - | - |
| 1777447354 | 13.33° C | 75% | 1018 hPa | 0 mm | - | - | - |
| 1777446754 | 13.33° C | 74% | 1018 hPa | 0 mm | - | - | - |
| 1777446154 | 13.89° C | 74% | 1018 hPa | 0 mm | - | - | - |
| 1777445554 | 13.89° C | 75% | 1018 hPa | 0 mm | - | - | - |
| 1777444954 | 13.33° C | 76% | 1018 hPa | 0 mm | - | - | - |
| 1777444354 | 13.33° C | 74% | 1018.1 hPa | 0 mm | - | - | - |
| 1777443754 | 13.89° C | 74% | 1018 hPa | 0 mm | - | - | - |
| 1777443154 | 13.89° C | 73% | 1018.1 hPa | 0 mm | - | - | - |
| 1777442554 | 14.44° C | 71% | 1018.2 hPa | 0 mm | - | - | - |
| 1777441954 | 15° C | 70% | 1018.2 hPa | 0 mm | - | - | - |
| 1777441354 | 15° C | 69% | 1018.2 hPa | 0 mm | - | - | - |
| 1777440754 | 15° C | 70% | 1018.4 hPa | 0 mm | - | - | - |
| 1777440154 | 15.56° C | 68% | 1018.3 hPa | 0 mm | - | - | - |
* Rain latest hour (hover to see other rain measurements)
** Current wind speed in m/s (hover to see current wind gust speed)